Location: Valdosta
(30.8330°N, 83.2790°W)
Time: 09:25:12
(UTC-04:00)

Amateur Radio Satellites - All Passes

Search period start: 25 October 2014 08:55
Search period end: 26 October 2014 08:55
Location: Valdosta, 30.8330°N, 83.2790°W

Satellite Date Start Highest point End Downlink Frequencies (MHz)
Time Altitude Azimuth
SO-67 25 Oct 09:00:32 09:03:41 34° 285° (WNW) 09:06:49 435.3500 MHz FM
PANSAT 25 Oct 09:23:21 09:27:07 60° 177° (S) 09:30:54 not established
HO-68 25 Oct 09:33:21 09:39:13 27° 97° (E) 09:45:02 435.675 MHz FM
Oscar 11 25 Oct 10:18:33 10:21:15 16° 95° (E) 10:23:57 145.825 FM, Beacon 2401.500 USB
MaSat-1 25 Oct 10:40:16 10:42:38 44° 251° (WSW) 10:44:53 437.345 MHz
KITSAT 1 25 Oct 11:01:50 11:06:03 15° 102° (ESE) 11:10:15 435.175 FM
PANSAT 25 Oct 11:03:26 11:07:07 47° 190° (S) 11:10:48 not established
ZACube-1 25 Oct 11:08:28 11:11:56 25° 97° (E) 11:15:20 437.345 MHz
RS-15 25 Oct 11:09:58 11:15:34 15° 260° (W) 11:21:17 29.354 - 29.394 USB, Beacon 29.352 USB
UKube-1 25 Oct 11:12:03 11:16:26 85° 103° (ESE) 11:20:47 145.840 MHz, 145.915 MHz
HO-68 25 Oct 11:20:12 11:26:59 46° 291° (WNW) 11:33:44 435.675 MHz FM
FUNcube-1 25 Oct 11:52:27 11:56:41 86° 282° (WNW) 12:00:49 145.950 - 145.970 MHz USB
Oscar 11 25 Oct 11:53:39 11:57:25 31° 287° (WNW) 12:01:12 145.825 FM, Beacon 2401.500 USB
ISS 25 Oct 12:18:55 12:22:08 52° 131° (SE) 12:25:23 145.800 FM
Oscar 10/S400 25 Oct 12:30:55 12:57:17 39° 154° (SSE) 13:14:28 145.825 - 145.975 CW/USB, Beacon 145.810 USB
PANSAT 25 Oct 12:44:06 12:46:55 20° 201° (SSW) 12:49:44 not established
ZACube-1 25 Oct 12:45:08 12:48:07 19° 290° (WNW) 12:51:04 437.345 MHz
SO-50 25 Oct 12:51:26 12:55:41 47° 114° (ESE) 13:00:02 436.795 FM
KITSAT 1 25 Oct 12:52:21 13:00:26 83° 296° (WNW) 13:08:33 435.175 FM
PCSat 25 Oct 12:56:42 12:59:52 16° 53° (NE) 13:03:01 145.825 MHz
Oscar 16 25 Oct 13:18:02 13:21:18 17° 67° (ENE) 13:24:34 437.025 USB, Beacon 2401.1428
Uribyol 2 25 Oct 13:40:49 13:42:10 11° 64° (ENE) 13:43:31 436.500 FM
ITAMSAT 1 25 Oct 13:46:27 13:48:19 12° 65° (ENE) 13:50:12 435.822 SSB
ISS 25 Oct 13:57:19 13:59:03 13° 326° (NW) 14:00:46 145.800 FM
Oscar 19 25 Oct 14:09:18 14:14:21 58° 74° (ENE) 14:19:23 437.125 CW, 437.150 USB
Gurwin Techsat 1B 25 Oct 14:11:24 14:11:53 10° 64° (ENE) 14:12:22 435.225 FM
UOSAT-12 25 Oct 14:12:17 14:16:07 27° 111° (ESE) 14:20:02 437.025 FM, 437.400 FM
Sapphire 25 Oct 14:15:45 14:21:12 75° 65° (ENE) 14:26:36 437.095 MHz 1200 baud AX-25 AFSK
JAS-1B 25 Oct 14:26:55 14:33:05 71° 75° (ENE) 14:38:45 435.800 - 435.900 CW/SSB
AO-27 25 Oct 14:29:02 14:33:43 35° 71° (ENE) 14:38:26 436.795 MHz FM
SO-50 25 Oct 14:33:52 14:36:28 15° 309° (NW) 14:39:06 436.795 FM
PCSat 25 Oct 14:38:19 14:43:39 60° 249° (WSW) 14:48:57 145.825 MHz
AO-Echo 25 Oct 14:45:08 14:49:55 66° 75° (ENE) 14:54:53 ?
KITSAT 1 25 Oct 14:52:22 14:57:00 16° 315° (NW) 15:01:38 435.175 FM
Oscar 16 25 Oct 14:55:20 15:00:15 44° 260° (W) 15:05:10 437.025 USB, Beacon 2401.1428
Uribyol 2 25 Oct 15:15:46 15:20:57 71° 258° (WSW) 15:26:11 436.500 FM
ITAMSAT 1 25 Oct 15:22:01 15:27:11 66° 258° (WSW) 15:32:23 435.822 SSB
Gurwin Techsat 1B 25 Oct 15:45:49 15:51:07 78° 258° (WSW) 15:56:26 435.225 FM
AO-40 25 Oct 15:51:38 23:42:16 53° 183° (S) 05:51:51 Beacon 2401.320
Oscar 19 25 Oct 15:52:02 15:53:56 12° 267° (W) 15:55:51 437.125 CW, 437.150 USB
UOSAT-12 25 Oct 15:52:20 15:56:10 25° 305° (NW) 16:00:03 437.025 FM, 437.400 FM
TMSAT-1 25 Oct 15:56:35 16:01:53 84° 257° (WSW) 16:07:12 436.925 FM
AO-27 25 Oct 16:09:21 16:13:14 21° 264° (W) 16:17:08 436.795 MHz FM
AO-7 25 Oct 16:15:16 16:22:51 42° 66° (ENE) 16:30:27 29.400 - 29.500 MHz
Uosat F 25 Oct 16:31:26 16:35:36 27° 70° (ENE) 16:39:46 435.120 FM
JAS-2 25 Oct 17:07:13 17:10:51 17° 62° (ENE) 17:14:43 435.800 - 435.900 CW/SSB, 435.910 FM
Saudisat 1A 25 Oct 17:20:21 17:24:40 52° 60° (ENE) 17:28:58 436.775 MHz
AO-7 25 Oct 18:08:12 18:15:33 35° 260° (W) 18:22:57 29.400 - 29.500 MHz
Uosat F 25 Oct 18:10:05 18:14:14 26° 263° (W) 18:18:25 435.120 FM
OPAL 25 Oct 18:20:37 18:25:15 40° 101° (E) 18:29:51 ?
Hamsat 25 Oct 18:48:24 18:52:37 78° 259° (WSW) 18:56:49 145.90 MHz
JAS-2 25 Oct 18:49:29 18:55:06 60° 260° (W) 19:01:30 435.800 - 435.900 CW/SSB, 435.910 FM
Saudisat 1A 25 Oct 19:02:41 19:03:43 11° 253° (WSW) 19:04:46 436.775 MHz
SO-67 25 Oct 19:27:49 19:30:44 26° 74° (ENE) 19:33:39 435.3500 MHz FM
OPAL 25 Oct 20:00:31 20:03:47 18° 294° (WNW) 20:07:02 ?
HO-68 25 Oct 20:00:45 20:02:25 11° 58° (ENE) 20:04:05 435.675 MHz FM
STRAND 1 25 Oct 20:06:10 20:11:14 56° 101° (E) 20:16:15 ?
ISS 25 Oct 20:28:16 20:31:33 55° 44° (NE) 20:34:49 145.800 FM
KITSAT 1 25 Oct 20:53:11 20:58:48 20° 48° (NE) 21:04:23 435.175 FM
RS-15 25 Oct 21:01:30 21:09:21 23° 103° (ESE) 21:17:04 29.354 - 29.394 USB, Beacon 29.352 USB
SO-67 25 Oct 21:02:46 21:03:42 11° 266° (W) 21:04:38 435.3500 MHz FM
SO-50 25 Oct 21:29:56 21:31:59 13° 49° (NE) 21:34:03 436.795 FM
HO-68 25 Oct 21:41:48 21:48:56 77° 73° (ENE) 21:56:07 435.675 MHz FM
STRAND 1 25 Oct 21:47:23 21:49:52 14° 294° (WNW) 21:52:21 ?
ZACube-1 25 Oct 22:01:15 22:03:06 12° 68° (ENE) 22:04:57 437.345 MHz
UKube-1 25 Oct 22:02:15 22:06:12 35° 73° (ENE) 22:10:10 145.840 MHz, 145.915 MHz
Oscar 11 25 Oct 22:42:29 22:46:48 81° 258° (WSW) 22:51:08 145.825 FM, Beacon 2401.500 USB
FUNcube-1 25 Oct 22:43:03 22:47:18 38° 74° (ENE) 22:51:31 145.950 - 145.970 MHz USB
KITSAT 1 25 Oct 22:46:55 22:55:00 81° 246° (WSW) 23:03:03 435.175 FM
SO-50 25 Oct 23:08:08 23:12:59 70° 244° (WSW) 23:17:50 436.795 FM
RS-15 25 Oct 23:09:30 23:20:33 74° 299° (WNW) 23:31:29 29.354 - 29.394 USB, Beacon 29.352 USB
HO-68 25 Oct 23:33:36 23:37:09 14° 267° (W) 23:40:43 435.675 MHz FM
ZACube-1 25 Oct 23:34:34 23:39:02 49° 260° (W) 23:43:27 437.345 MHz
UKube-1 25 Oct 23:40:01 23:42:26 15° 265° (W) 23:44:52 145.840 MHz, 145.915 MHz
MaSat-1 26 Oct 00:10:26 00:14:40 67° 292° (WNW) 00:18:33 437.345 MHz
FUNcube-1 26 Oct 00:21:07 00:23:43 15° 266° (W) 00:26:20 145.950 - 145.970 MHz USB
UOSAT-12 26 Oct 00:26:12 00:30:52 63° 61° (ENE) 00:35:25 437.025 FM, 437.400 FM
KITSAT 1 26 Oct 00:47:41 00:49:10 11° 260° (W) 00:50:39 435.175 FM
RS-15 26 Oct 01:28:13 01:35:02 18° 322° (NW) 01:41:54 29.354 - 29.394 USB, Beacon 29.352 USB
Oscar 10/S400 26 Oct 01:36:28 02:50:00 28° 244° (WSW) 06:14:48 145.825 - 145.975 CW/USB, Beacon 145.810 USB
JAS-1B 26 Oct 02:15:09 02:21:23 30° 99° (E) 02:28:31 435.800 - 435.900 CW/SSB
Oscar 19 26 Oct 02:26:49 02:31:22 32° 98° (E) 02:35:54 437.125 CW, 437.150 USB
AO-27 26 Oct 02:48:18 02:52:04 20° 96° (E) 02:55:49 436.795 MHz FM
AO-Echo 26 Oct 02:58:00 03:02:51 35° 98° (E) 03:07:39 ?
Sapphire 26 Oct 03:10:18 03:14:17 21° 106° (ESE) 03:18:17 437.095 MHz 1200 baud AX-25 AFSK
Oscar 16 26 Oct 03:12:20 03:17:28 80° 284° (WNW) 03:22:34 437.025 USB, Beacon 2401.1428
PCSat 26 Oct 03:31:33 03:36:31 39° 109° (ESE) 03:41:30 145.825 MHz
Uribyol 2 26 Oct 03:34:10 03:39:20 66° 102° (ESE) 03:44:28 436.500 FM
ITAMSAT 1 26 Oct 03:40:30 03:45:43 72° 102° (ESE) 03:50:53 435.822 SSB
JAS-1B 26 Oct 04:05:16 04:11:50 45° 288° (WNW) 04:19:37 435.800 - 435.900 CW/SSB
Oscar 19 26 Oct 04:06:33 04:10:28 23° 291° (WNW) 04:14:23 437.125 CW, 437.150 USB
Gurwin Techsat 1B 26 Oct 04:07:41 04:12:59 68° 102° (ESE) 04:18:15 435.225 FM
TMSAT-1 26 Oct 04:18:06 04:23:22 62° 101° (E) 04:28:35 436.925 FM
AO-7 26 Oct 04:24:35 04:29:47 18° 95° (E) 04:34:57 29.400 - 29.500 MHz
AO-27 26 Oct 04:26:50 04:31:37 37° 288° (WNW) 04:36:21 436.795 MHz FM
AO-Echo 26 Oct 04:37:16 04:41:19 23° 291° (WNW) 04:45:21 ?
Uosat F 26 Oct 04:46:13 04:48:20 13° 94° (E) 04:50:27 435.120 FM
Sapphire 26 Oct 04:52:22 04:57:23 38° 299° (WNW) 05:02:26 437.095 MHz 1200 baud AX-25 AFSK
PCSat 26 Oct 05:15:48 05:19:59 23° 304° (WNW) 05:24:12 145.825 MHz
Uribyol 2 26 Oct 05:16:23 05:18:10 12° 295° (WNW) 05:19:57 436.500 FM
ITAMSAT 1 26 Oct 05:23:17 05:24:31 11° 296° (WNW) 05:25:44 435.822 SSB
OPAL 26 Oct 05:30:10 05:34:57 40° 71° (ENE) 05:39:42 ?
PANSAT 26 Oct 05:40:15 05:41:58 13° 155° (SSE) 05:43:42 not established
Gurwin Techsat 1B 26 Oct 05:50:27 05:52:17 12° 295° (WNW) 05:54:07 435.225 FM
TMSAT-1 26 Oct 06:00:23 06:02:41 13° 295° (WNW) 06:04:58 436.925 FM
JAS-2 26 Oct 06:04:22 06:11:08 31° 95° (E) 06:17:40 435.800 - 435.900 CW/SSB, 435.910 FM
RS-15 26 Oct 06:06:53 06:14:19 19° 39° (NE) 06:21:52 29.354 - 29.394 USB, Beacon 29.352 USB
AO-7 26 Oct 06:14:46 06:23:04 76° 289° (WNW) 06:31:23 29.400 - 29.500 MHz
Uosat F 26 Oct 06:22:26 06:27:21 54° 286° (WNW) 06:32:14 435.120 FM
Hamsat 26 Oct 06:39:51 06:43:26 27° 97° (E) 06:47:00 145.90 MHz
OPAL 26 Oct 07:10:21 07:13:52 19° 263° (W) 07:17:23 ?
STRAND 1 26 Oct 07:16:43 07:21:35 45° 73° (ENE) 07:26:28 ?
PANSAT 26 Oct 07:18:08 07:21:40 36° 165° (SSE) 07:25:13 not established
Saudisat 1A 26 Oct 07:21:25 07:25:38 50° 114° (ESE) 07:29:53 436.775 MHz
JAS-2 26 Oct 07:48:43 07:56:07 47° 289° (WNW) 08:03:22 435.800 - 435.900 CW/SSB, 435.910 FM
AO-7 26 Oct 08:11:18 08:14:28 13° 305° (NW) 08:17:39 29.400 - 29.500 MHz
Hamsat 26 Oct 08:16:16 08:19:08 18° 289° (WNW) 08:22:02 145.90 MHz
RS-15 26 Oct 08:17:24 08:28:43 77° 62° (ENE) 08:40:31 29.354 - 29.394 USB, Beacon 29.352 USB
SO-67 26 Oct 08:28:30 08:31:56 71° 101° (E) 08:35:21 435.3500 MHz FM
